Weather in Arylakh

Russia / Sakha (Yakutia) Republic     62°23′00″N   114°21′01″E
temp.,
°C
wind,
m/s
gust,
m/s
humid.,
%
clouds,
%
prec.,
mm/h
press.,
hPa
HPBL,
m
11 may, tue
tue1100:000n288372 0.0 1020274
03:00−1n278789 0.0 1020269
06:00−1n388522 0.0 1020436
09:00+1nne4664100 0.1 10201274
12:00+3nne4662100 0.2 10191424
15:00+3ne5663100 0.6 10201293
18:00+3ne5562100 0.2 10201229
21:00+1nne3667100 0.3 1020692
12 may, wed
wed1200:000nne3878100 0.1 1020453
03:00−2nne38845 0.1 1020349
06:00−2nne378068 0.0 1020403
09:00+1nne3363100 0.0 10191025
12:00+4n3447100 0.0 10181493
15:00+6n334096 0.0 10171778
18:00+7n333974 0.0 10161763
21:00+4nw23545 0.0 101765
13 may, thu
thu1300:00+1nnw22675 0.0 101826
03:000nnw22700 0.0 101913
06:000nw11675 0.0 101850
09:00+5nw23470 0.0 1018829
12:00+8wnw23320 0.0 10161335
15:00+10wnw33270 0.0 10151738
18:00+10wnw33295 0.0 10141875
21:00+8w22455 0.0 101423
14 may, fri
fri1400:00+4sw22535 0.0 101410
03:00+3ssw225954 0.0 101427
06:00+2sw276285 0.0 1013148
09:00+9sw474082 0.0 1012584
12:00+12wsw463285 0.0 10112003
15:00+14wsw453199 0.0 10092355
18:00+14wsw343285 0.0 10082217
21:00+11ssw2543100 0.0 100891
15 may, sat
sat1500:00+7s3852100 0.0 1008172
03:00+5ssw385998 0.0 1006148
06:00+5s396095 0.0 1005226
09:00+10s4943100 0.0 1003531
12:00+14s6113366 0.0 9992425
15:00+16ssw81231100 0.0 9962855
18:00+8sw61157100 0.4 9981584
21:00+4wsw51294100 0.9 1000772